| time (UTC) | temp C | wind direction | speed KPH | gust KPH | rain 1hr cm | rain 24hr cm | rain mn cm | humidity % | barometer mb |
| 20260502164008 | 10 | 172 | 0.0 | 9.7 | 0.00 | 0.15 | 0.15 | 80 | 1011.3 |
| 20260502163502 | 10 | 188 | 0.0 | 1.6 | 0.00 | 0.15 | 0.15 | 81 | 1011.3 |
| 20260502163004 | 10 | 172 | 0.0 | 1.6 | 0.00 | 0.15 | 0.15 | 80 | 1011.3 |
| 20260502162504 | 10 | 203 | 0.0 | 0.0 | 0.00 | 0.15 | 0.15 | 82 | 1011.4 |
| 20260502162003 | 10 | 203 | 0.0 | 0.0 | 0.00 | 0.15 | 0.15 | 81 | 1011.4 |
| 20260502161505 | 10 | 204 | 0.0 | 0.0 | 0.00 | 0.15 | 0.15 | 80 | 1011.5 |
| 20260502161003 | 10 | 204 | 0.0 | 0.0 | 0.00 | 0.15 | 0.15 | 81 | 1011.4 |
| 20260502160503 | 10 | 204 | 0.0 | 0.0 | 0.00 | 0.15 | 0.15 | 80 | 1011.4 |
| 20260502152003 | 10 | 205 | 0.0 | 0.0 | 0.00 | 0.15 | 0.15 | 81 | 1012.1 |
| 20260502151503 | 10 | 200 | 0.0 | 0.0 | 0.00 | 0.15 | 0.15 | 83 | 1012.1 |
| 20260502151004 | 10 | 204 | 0.0 | 0.0 | 0.00 | 0.15 | 0.15 | 82 | 1012.1 |
| 20260502150503 | 10 | 204 | 0.0 | 0.0 | 0.00 | 0.15 | 0.15 | 82 | 1012.0 |
| 20260502130502 | 8 | 225 | 0.0 | 0.0 | 0.08 | 0.15 | 0.15 | 90 | 1011.8 |
| 20260502123503 | 8 | 224 | 0.0 | 0.0 | 0.15 | 0.15 | 0.15 | 90 | 1011.9 |
| 20260502123008 | 7 | 224 | 0.0 | 0.0 | 0.15 | 0.15 | 0.15 | 89 | 1011.9 |
| 20260502122506 | 7 | 224 | 0.0 | 0.0 | 0.15 | 0.15 | 0.15 | 88 | 1012.1 |
| 20260502122007 | 7 | 224 | 0.0 | 0.0 | 0.13 | 0.13 | 0.13 | 88 | 1012.3 |
| 20260502121516 | 7 | 224 | 0.0 | 0.0 | 0.13 | 0.13 | 0.13 | 88 | 1012.6 |
| 20260502121004 | 7 | 224 | 0.0 | 0.0 | 0.10 | 0.10 | 0.10 | 88 | 1012.6 |
| 20260502120503 | 7 | 224 | 0.0 | 0.0 | 0.08 | 0.08 | 0.08 | 88 | 1012.7 |
| 20260502115502 | 7 | 224 | 0.0 | 0.0 | 0.03 | 0.03 | 0.03 | 88 | 1012.5 |
| 20260502115004 | 7 | 224 | 0.0 | 0.0 | 0.00 | 0.00 | 0.00 | 88 | 1012.5 |
| 20260502114514 | 7 | 224 | 0.0 | 0.0 | 0.00 | 0.00 | 0.00 | 87 | 1012.4 |
| 20260502114003 | 7 | 224 | 0.0 | 0.0 | 0.00 | 0.00 | 0.00 | 87 | 1012.4 |
| 20260502113503 | 7 | 224 | 0.0 | 0.0 | 0.00 | 0.00 | 0.00 | 87 | 1012.5 |
| 20260502113016 | 7 | 224 | 0.0 | 0.0 | 0.00 | 0.00 | 0.00 | 87 | 1012.5 |
| 20260502112506 | 7 | 224 | 0.0 | 0.0 | 0.00 | 0.00 | 0.00 | 87 | 1012.4 |
| 20260502112004 | 7 | 196 | 0.0 | 0.0 | 0.00 | 0.00 | 0.00 | 87 | 1012.5 |
| 20260502111512 | 7 | 196 | 0.0 | 0.0 | 0.00 | 0.00 | 0.00 | 87 | 1012.3 |
| 20260502111005 | 7 | 196 | 0.0 | 0.0 | 0.00 | 0.00 | 0.00 | 87 | 1012.4 |
| 20260502110503 | 7 | 196 | 0.0 | 0.0 | 0.00 | 0.00 | 0.00 | 87 | 1012.2 |
| 20260502110015 | 7 | 196 | 0.0 | 0.0 | 0.00 | 0.00 | 0.00 | 87 | 1011.9 |
| 20260502105504 | 7 | 196 | 0.0 | 0.0 | 0.00 | 0.00 | 0.00 | 87 | 1011.9 |
| 20260502105006 | 6 | 196 | 0.0 | 0.0 | 0.00 | 0.00 | 0.00 | 86 | 1011.7 |
| 20260502104515 | 6 | 196 | 0.0 | 0.0 | 0.00 | 0.00 | 0.00 | 86 | 1011.7 |
| 20260502104005 | 6 | 196 | 0.0 | 0.0 | 0.00 | 0.00 | 0.00 | 86 | 1011.6 |
| 20260502103503 | 6 | 196 | 0.0 | 0.0 | 0.00 | 0.00 | 0.00 | 86 | 1011.5 |
| 20260502103005 | 6 | 196 | 0.0 | 0.0 | 0.00 | 0.00 | 0.00 | 86 | 1011.6 |
| 20260502102504 | 6 | 196 | 0.0 | 0.0 | 0.00 | 0.00 | 0.00 | 85 | 1011.6 |
| 20260502102003 | 6 | 196 | 0.0 | 0.0 | 0.00 | 0.00 | 0.00 | 85 | 1011.8 |
| 20260502101510 | 6 | 196 | 0.0 | 0.0 | 0.00 | 0.00 | 0.00 | 85 | 1011.9 |
| 20260502101005 | 6 | 196 | 0.0 | 0.0 | 0.00 | 0.00 | 0.00 | 85 | 1011.9 |
| 20260502100508 | 6 | 196 | 0.0 | 0.0 | 0.00 | 0.00 | 0.00 | 85 | 1011.7 |
| 20260502091518 | 6 | 196 | 0.0 | 0.0 | 0.00 | 0.00 | 0.00 | 83 | 1011.6 |
| 20260502091004 | 7 | 196 | 0.0 | 0.0 | 0.00 | 0.00 | 0.00 | 83 | 1011.6 |
| 20260502090504 | 7 | 196 | 0.0 | 0.0 | 0.00 | 0.00 | 0.00 | 83 | 1011.3 |
| 20260502071520 | 7 | 159 | 0.0 | 0.0 | 0.00 | 0.00 | 0.00 | 79 | 1011.7 |
| 20260502071008 | 7 | 159 | 0.0 | 0.0 | 0.00 | 0.00 | 0.00 | 78 | 1011.6 |
| 20260502070507 | 7 | 159 | 0.0 | 0.0 | 0.00 | 0.00 | 0.00 | 78 | 1011.4 |
| 20260502070023 | 7 | 159 | 0.0 | 0.0 | 0.00 | 0.00 | 0.00 | 78 | 1011.5 |
| 20260502065506 | 7 | 159 | 0.0 | 0.0 | 0.00 | 0.00 | 0.00 | 78 | 1011.5 |
| 20260502065010 | 7 | 159 | 0.0 | 0.0 | 0.00 | 0.00 | 0.00 | 78 | 1011.5 |
| 20260502064528 | 7 | 159 | 0.0 | 0.0 | 0.00 | 0.00 | 0.00 | 78 | 1011.6 |
| 20260502064002 | 7 | 159 | 0.0 | 0.0 | 0.00 | 0.00 | 0.00 | 78 | 1011.5 |
| 20260502063504 | 7 | 159 | 0.0 | 0.0 | 0.00 | 0.00 | 0.00 | 78 | 1011.6 |
| 20260502063013 | 7 | 159 | 0.0 | 0.0 | 0.00 | 0.00 | 0.00 | 79 | 1011.7 |
| 20260502062507 | 7 | 159 | 0.0 | 0.0 | 0.00 | 0.00 | 0.00 | 79 | 1011.6 |
| 20260502062006 | 7 | 159 | 0.0 | 0.0 | 0.00 | 0.00 | 0.00 | 79 | 1011.6 |
| 20260502061519 | 7 | 159 | 0.0 | 0.0 | 0.00 | 0.00 | 0.00 | 78 | 1011.7 |
| 20260502061007 | 7 | 159 | 0.0 | 0.0 | 0.00 | 0.00 | 0.00 | 78 | 1011.7 |
| 20260502060505 | 7 | 159 | 0.0 | 0.0 | 0.00 | 0.00 | 0.00 | 78 | 1011.7 |
| 20260502060025 | 7 | 159 | 0.0 | 0.0 | 0.00 | 0.00 | 0.00 | 77 | 1011.8 |
| 20260502055507 | 7 | 159 | 0.0 | 0.0 | 0.00 | 0.00 | 0.00 | 77 | 1011.8 |
| 20260502055007 | 7 | 159 | 0.0 | 0.0 | 0.00 | 0.00 | 0.00 | 76 | 1011.8 |
| 20260502054522 | 7 | 159 | 0.0 | 0.0 | 0.00 | 0.00 | 0.00 | 75 | 1011.9 |
| 20260502054011 | 8 | 159 | 0.0 | 0.0 | 0.00 | 0.00 | 0.00 | 75 | 1011.9 |
| 20260502053508 | 8 | 159 | 0.0 | 0.0 | 0.00 | 0.00 | 0.00 | 76 | 1011.9 |
| 20260502053027 | 8 | 159 | 0.0 | 0.0 | 0.00 | 0.00 | 0.00 | 76 | 1011.9 |
| 20260502052507 | 8 | 159 | 0.0 | 0.0 | 0.00 | 0.00 | 0.00 | 75 | 1011.9 |
| 20260502052007 | 8 | 159 | 0.0 | 0.0 | 0.00 | 0.00 | 0.00 | 75 | 1011.9 |
| 20260502051514 | 8 | 159 | 0.0 | 0.0 | 0.00 | 0.00 | 0.00 | 75 | 1011.9 |
| 20260502051006 | 8 | 159 | 0.0 | 0.0 | 0.00 | 0.00 | 0.00 | 74 | 1011.9 |
| 20260502050506 | 8 | 159 | 0.0 | 0.0 | 0.00 | 0.00 | 0.00 | 74 | 1012.0 |
| 20260502050022 | 8 | 159 | 0.0 | 0.0 | 0.00 | 0.00 | 0.00 | 74 | 1012.0 |
| 20260502045506 | 8 | 159 | 0.0 | 0.0 | 0.00 | 0.00 | 0.00 | 74 | 1012.1 |
| 20260502045006 | 8 | 159 | 0.0 | 0.0 | 0.00 | 0.00 | 0.00 | 74 | 1012.0 |
| 20260502044522 | 8 | 159 | 0.0 | 0.0 | 0.00 | 0.00 | 0.00 | 74 | 1012.0 |
| 20260502044009 | 8 | 159 | 0.0 | 0.0 | 0.00 | 0.00 | 0.00 | 73 | 1011.9 |
| 20260502043507 | 8 | 159 | 0.0 | 0.0 | 0.00 | 0.00 | 0.00 | 72 | 1011.9 |
| 20260502043023 | 8 | 159 | 0.0 | 0.0 | 0.00 | 0.00 | 0.00 | 72 | 1011.9 |
| 20260502042510 | 8 | 159 | 0.0 | 0.0 | 0.00 | 0.00 | 0.00 | 71 | 1011.8 |
| 20260502042010 | 8 | 159 | 0.0 | 0.0 | 0.00 | 0.00 | 0.00 | 72 | 1011.8 |
| 20260502041526 | 8 | 159 | 0.0 | 0.0 | 0.00 | 0.00 | 0.00 | 73 | 1011.8 |
| 20260502041006 | 8 | 159 | 0.0 | 0.0 | 0.00 | 0.00 | 0.00 | 73 | 1011.8 |
| 20260502040506 | 8 | 159 | 0.0 | 0.0 | 0.00 | 0.00 | 0.00 | 73 | 1011.9 |
| 20260502040023 | 8 | 159 | 0.0 | 0.0 | 0.00 | 0.00 | 0.00 | 73 | 1012.0 |
| 20260502035509 | 8 | 159 | 0.0 | 0.0 | 0.00 | 0.00 | 0.00 | 72 | 1012.0 |
| 20260502035007 | 8 | 159 | 0.0 | 0.0 | 0.00 | 0.00 | 0.00 | 71 | 1012.0 |
| 20260502034529 | 8 | 159 | 0.0 | 0.0 | 0.00 | 0.00 | 0.00 | 71 | 1011.9 |
| 20260502034006 | 8 | 159 | 0.0 | 0.0 | 0.00 | 0.00 | 0.00 | 70 | 1012.0 |
| 20260502033505 | 9 | 159 | 0.0 | 0.0 | 0.00 | 0.00 | 0.00 | 69 | 1011.9 |
| 20260502033026 | 9 | 159 | 0.0 | 0.0 | 0.00 | 0.00 | 0.00 | 69 | 1011.9 |
| 20260502032506 | 9 | 159 | 0.0 | 0.0 | 0.00 | 0.00 | 0.00 | 68 | 1012.0 |
| 20260502032007 | 10 | 159 | 0.0 | 0.0 | 0.00 | 0.00 | 0.00 | 67 | 1012.0 |
| 20260502031524 | 10 | 159 | 0.0 | 0.0 | 0.00 | 0.00 | 0.00 | 66 | 1011.9 |
| 20260502031009 | 10 | 159 | 0.0 | 0.0 | 0.00 | 0.00 | 0.00 | 65 | 1012.0 |
| 20260502030512 | 10 | 159 | 0.0 | 0.0 | 0.00 | 0.00 | 0.00 | 65 | 1012.0 |
| 20260502030024 | 10 | 159 | 0.0 | 0.0 | 0.00 | 0.00 | 0.00 | 63 | 1012.0 |
| 20260502025506 | 10 | 159 | 0.0 | 0.0 | 0.00 | 0.00 | 0.00 | 63 | 1012.0 |
| 20260502025004 | 10 | 166 | 0.0 | 0.0 | 0.00 | 0.00 | 0.00 | 63 | 1012.0 |
| 20260502024517 | 11 | 166 | 0.0 | 0.0 | 0.00 | 0.00 | 0.00 | 62 | 1012.0 |
| 20260502024007 | 11 | 165 | 0.0 | 1.6 | 0.00 | 0.00 | 0.00 | 62 | 1012.0 |
| 20260502023507 | 11 | 166 | 0.0 | 1.6 | 0.00 | 0.00 | 0.00 | 63 | 1011.9 |
| 20260502023024 | 11 | 188 | 0.0 | 11.3 | 0.00 | 0.00 | 0.00 | 61 | 1011.9 |
| 20260502022508 | 11 | 188 | 3.2 | 11.3 | 0.00 | 0.00 | 0.00 | 61 | 1011.9 |
| 20260502022014 | 11 | 167 | 0.0 | 1.6 | 0.00 | 0.00 | 0.00 | 60 | 1011.9 |
| 20260502021528 | 11 | 157 | 0.0 | 0.0 | 0.00 | 0.00 | 0.00 | 60 | 1011.8 |
| 20260502021007 | 11 | 157 | 0.0 | 1.6 | 0.00 | 0.00 | 0.00 | 60 | 1011.8 |
| 20260502020509 | 11 | 159 | 0.0 | 1.6 | 0.00 | 0.00 | 0.00 | 60 | 1011.9 |
| 20260502020028 | 11 | 217 | 0.0 | 0.0 | 0.00 | 0.00 | 0.00 | 59 | 1012.0 |
| 20260502015510 | 11 | 203 | 0.0 | 12.9 | 0.00 | 0.00 | 0.00 | 59 | 1012.0 |
| 20260502015011 | 11 | 196 | 0.0 | 12.9 | 0.00 | 0.00 | 0.00 | 59 | 1011.9 |
| 20260502014530 | 11 | 198 | 1.6 | 12.9 | 0.00 | 0.00 | 0.00 | 59 | 1011.9 |
| 20260502014007 | 11 | 180 | 0.0 | 14.5 | 0.00 | 0.00 | 0.00 | 58 | 1011.9 |
| 20260502013506 | 11 | 172 | 0.0 | 14.5 | 0.00 | 0.00 | 0.00 | 59 | 1011.9 |
| 20260502013021 | 10 | 177 | 1.6 | 9.7 | 0.00 | 0.00 | 0.00 | 59 | 1011.9 |
| 20260502012505 | 10 | 198 | 0.0 | 0.0 | 0.00 | 0.00 | 0.00 | 59 | 1011.8 |
| 20260502012010 | 9 | 190 | 0.0 | 1.6 | 0.00 | 0.00 | 0.00 | 60 | 1011.8 |
| 20260502011514 | 8 | 306 | 0.0 | 1.6 | 0.00 | 0.00 | 0.00 | 61 | 1011.7 |
| 20260502011002 | 8 | 229 | 0.0 | 1.6 | 0.00 | 0.00 | 0.00 | 62 | 1011.8 |
| 20260502010504 | 8 | 228 | 0.0 | 1.6 | 0.00 | 0.00 | 0.00 | 62 | 1011.7 |
| 20260502010008 | 8 | 238 | 0.0 | 0.0 | 0.00 | 0.00 | 0.00 | 64 | 1011.5 |
| 20260502005504 | 8 | 238 | 0.0 | 0.0 | 0.00 | 0.00 | 0.00 | 63 | 1011.4 |
| 20260502005005 | 8 | 238 | 0.0 | 0.0 | 0.00 | 0.00 | 0.00 | 65 | 1011.3 |
| 20260502004513 | 8 | 238 | 0.0 | 0.0 | 0.00 | 0.00 | 0.00 | 63 | 1011.3 |
| 20260502004004 | 8 | 238 | 0.0 | 0.0 | 0.00 | 0.00 | 0.00 | 62 | 1011.3 |
| 20260502003503 | 8 | 237 | 0.0 | 0.0 | 0.00 | 0.00 | 0.00 | 61 | 1011.3 |
| 20260502003022 | 8 | 237 | 0.0 | 0.0 | 0.00 | 0.00 | 0.00 | 59 | 1011.1 |
| 20260502002511 | 9 | 237 | 0.0 | 0.0 | 0.00 | 0.00 | 0.00 | 61 | 1011.0 |
| 20260502002008 | 9 | 238 | 0.0 | 0.0 | 0.00 | 0.00 | 0.00 | 59 | 1011.0 |
| 20260502001521 | 10 | 238 | 0.0 | 0.0 | 0.00 | 0.00 | 0.00 | 58 | 1010.9 |
| 20260502001007 | 10 | 238 | 0.0 | 0.0 | 0.00 | 0.00 | 0.00 | 56 | 1010.9 |
| 20260502000507 | 10 | 238 | 0.0 | 0.0 | 0.00 | 0.00 | 0.00 | 57 | 1010.8 |
| 20260502000010 | 10 | 238 | 0.0 | 0.0 | 0.00 | 0.00 | 0.00 | 56 | 1010.6 |
| 20260501235506 | 11 | 238 | 0.0 | 0.0 | 0.00 | 0.00 | 0.00 | 53 | 1010.5 |
| 20260501235003 | 11 | 238 | 0.0 | 0.0 | 0.00 | 0.00 | 0.00 | 52 | 1010.3 |
| 20260501234509 | 12 | 238 | 0.0 | 0.0 | 0.00 | 0.00 | 0.00 | 53 | 1010.3 |
| 20260501234003 | 13 | 238 | 0.0 | 0.0 | 0.00 | 0.00 | 0.00 | 48 | 1010.3 |
| 20260501233504 | 13 | 238 | 0.0 | 0.0 | 0.00 | 0.00 | 0.00 | 42 | 1010.3 |
| 20260501233026 | 13 | 223 | 0.0 | 0.0 | 0.00 | 0.00 | 0.00 | 42 | 1010.2 |
| 20260501232511 | 14 | 222 | 0.0 | 0.0 | 0.00 | 0.00 | 0.00 | 40 | 1010.2 |
| 20260501232007 | 14 | 222 | 0.0 | 0.0 | 0.00 | 0.00 | 0.00 | 38 | 1010.2 |
| 20260501231532 | 14 | 222 | 0.0 | 0.0 | 0.00 | 0.00 | 0.00 | 37 | 1010.1 |
| 20260501231011 | 15 | 223 | 0.0 | 0.0 | 0.00 | 0.00 | 0.00 | 38 | 1010.0 |
| 20260501230508 | 15 | 223 | 0.0 | 1.6 | 0.00 | 0.00 | 0.00 | 37 | 1009.9 |
| 20260501230021 | 15 | 247 | 0.0 | 1.6 | 0.00 | 0.00 | 0.00 | 37 | 1009.8 |
| 20260501225509 | 15 | 275 | 0.0 | 1.6 | 0.00 | 0.00 | 0.00 | 37 | 1009.7 |
| 20260501225011 | 15 | 225 | 0.0 | 6.4 | 0.00 | 0.00 | 0.00 | 36 | 1009.7 |
| 20260501224505 | 15 | 250 | 0.0 | 14.5 | 0.00 | 0.00 | 0.00 | 36 | 1009.6 |
| 20260501224003 | 15 | 219 | 0.0 | 14.5 | 0.00 | 0.00 | 0.00 | 36 | 1009.7 |
| 20260501223504 | 15 | 318 | 0.0 | 1.6 | 0.00 | 0.00 | 0.00 | 36 | 1009.6 |
| 20260501223026 | 15 | 290 | 0.0 | 1.6 | 0.00 | 0.00 | 0.00 | 36 | 1009.6 |
| 20260501222510 | 15 | 279 | 0.0 | 9.7 | 0.00 | 0.00 | 0.00 | 36 | 1009.6 |
| 20260501222010 | 15 | 210 | 0.0 | 12.9 | 0.00 | 0.00 | 0.00 | 35 | 1009.6 |
| 20260501221527 | 16 | 342 | 3.2 | 12.9 | 0.00 | 0.00 | 0.00 | 34 | 1009.6 |
| 20260501221003 | 16 | 330 | 0.0 | 1.6 | 0.00 | 0.00 | 0.00 | 36 | 1009.7 |
| 20260501220507 | 16 | 284 | 0.0 | 14.5 | 0.00 | 0.00 | 0.00 | 35 | 1009.7 |
| 20260501220030 | 15 | 333 | 6.4 | 19.3 | 0.00 | 0.00 | 0.00 | 36 | 1009.8 |
| 20260501215510 | 16 | 313 | 8.0 | 19.3 | 0.00 | 0.00 | 0.00 | 35 | 1009.9 |
| 20260501215008 | 16 | 323 | 1.6 | 17.7 | 0.00 | 0.00 | 0.00 | 36 | 1009.8 |
| 20260501214527 | 16 | 283 | 0.0 | 17.7 | 0.00 | 0.00 | 0.00 | 34 | 1009.8 |
| 20260501214013 | 16 | 305 | 3.2 | 17.7 | 0.00 | 0.00 | 0.00 | 34 | 1009.8 |
| 20260501213511 | 16 | 278 | 0.0 | 16.1 | 0.00 | 0.00 | 0.00 | 35 | 1009.7 |
| 20260501213013 | 16 | 331 | 0.0 | 16.1 | 0.00 | 0.00 | 0.00 | 34 | 1009.7 |
| 20260501212509 | 16 | 347 | 3.2 | 12.9 | 0.00 | 0.00 | 0.00 | 36 | 1009.7 |
| 20260501212003 | 16 | 317 | 1.6 | 11.3 | 0.00 | 0.00 | 0.00 | 33 | 1009.6 |
| 20260501211510 | 16 | 177 | 0.0 | 11.3 | 0.00 | 0.00 | 0.00 | 34 | 1009.6 |
| 20260501211007 | 16 | 287 | 0.0 | 17.7 | 0.00 | 0.00 | 0.00 | 35 | 1009.6 |
| 20260501210506 | 16 | 327 | 1.6 | 17.7 | 0.00 | 0.00 | 0.00 | 34 | 1009.7 |
| 20260501210017 | 16 | 340 | 6.4 | 16.1 | 0.00 | 0.00 | 0.00 | 37 | 1009.6 |
| 20260501205509 | 16 | 330 | 0.0 | 16.1 | 0.00 | 0.00 | 0.00 | 34 | 1009.7 |
| 20260501205013 | 16 | 257 | 3.2 | 16.1 | 0.00 | 0.00 | 0.00 | 32 | 1009.5 |
| 20260501204520 | 16 | 160 | 3.2 | 17.7 | 0.00 | 0.00 | 0.00 | 36 | 1009.5 |
| 20260501204010 | 16 | 256 | 0.0 | 17.7 | 0.00 | 0.00 | 0.00 | 34 | 1009.6 |
| 20260501203508 | 16 | 271 | 4.8 | 17.7 | 0.00 | 0.00 | 0.00 | 35 | 1009.6 |
| 20260501203025 | 16 | 305 | 1.6 | 17.7 | 0.00 | 0.00 | 0.00 | 35 | 1009.5 |
| 20260501202510 | 16 | 295 | 4.8 | 14.5 | 0.00 | 0.00 | 0.00 | 35 | 1009.5 |
| 20260501202011 | 16 | 299 | 4.8 | 14.5 | 0.00 | 0.00 | 0.00 | 36 | 1009.6 |
| 20260501201509 | 16 | 315 | 3.2 | 19.3 | 0.00 | 0.00 | 0.00 | 35 | 1009.5 |
| 20260501201009 | 16 | 319 | 11.3 | 19.3 | 0.00 | 0.00 | 0.00 | 36 | 1009.5 |
| 20260501200511 | 16 | 296 | 9.7 | 17.7 | 0.00 | 0.00 | 0.00 | 34 | 1009.5 |
| 20260501200028 | 16 | 265 | 0.0 | 12.9 | 0.00 | 0.00 | 0.00 | 38 | 1009.4 |
| 20260501195506 | 15 | 304 | 0.0 | 24.1 | 0.00 | 0.00 | 0.00 | 39 | 1009.5 |
| 20260501195010 | 15 | 347 | 9.7 | 24.1 | 0.00 | 0.00 | 0.00 | 36 | 1009.6 |
| 20260501194520 | 15 | 190 | 3.2 | 14.5 | 0.00 | 0.00 | 0.00 | 35 | 1009.5 |
| 20260501194005 | 15 | 342 | 6.4 | 14.5 | 0.00 | 0.00 | 0.00 | 36 | 1009.7 |
| 20260501193508 | 16 | 271 | 6.4 | 16.1 | 0.00 | 0.00 | 0.00 | 34 | 1009.8 |
| 20260501193033 | 15 | 254 | 3.2 | 16.1 | 0.00 | 0.00 | 0.00 | 35 | 1009.8 |
| 20260501192510 | 15 | 324 | 0.0 | 14.5 | 0.00 | 0.00 | 0.00 | 37 | 1009.8 |
| 20260501192002 | 15 | 240 | 0.0 | 19.3 | 0.00 | 0.00 | 0.00 | 37 | 1009.8 |
| 20260501191507 | 15 | 276 | 8.0 | 19.3 | 0.00 | 0.00 | 0.00 | 34 | 1010.0 |
| 20260501191004 | 16 | 254 | 6.4 | 19.3 | 0.00 | 0.00 | 0.00 | 35 | 1010.0 |
| 20260501190503 | 15 | 257 | 6.4 | 19.3 | 0.00 | 0.00 | 0.00 | 36 | 1009.9 |
| 20260501190037 | 15 | 223 | 0.0 | 25.7 | 0.00 | 0.00 | 0.00 | 34 | 1010.0 |
| 20260501185511 | 15 | 325 | 9.7 | 25.7 | 0.00 | 0.00 | 0.00 | 37 | 1009.9 |
| 20260501185010 | 15 | 202 | 4.8 | 19.3 | 0.00 | 0.00 | 0.00 | 36 | 1009.8 |
| 20260501184530 | 15 | 270 | 4.8 | 17.7 | 0.00 | 0.00 | 0.00 | 36 | 1010.0 |
| 20260501184010 | 15 | 338 | 9.7 | 19.3 | 0.00 | 0.00 | 0.00 | 35 | 1010.0 |
| 20260501183505 | 15 | 219 | 3.2 | 20.9 | 0.00 | 0.00 | 0.00 | 37 | 1009.9 |
| 20260501183028 | 15 | 135 | 3.2 | 20.9 | 0.00 | 0.00 | 0.00 | 36 | 1010.0 |
| 20260501182507 | 15 | 298 | 8.0 | 19.3 | 0.00 | 0.00 | 0.00 | 48 | 1010.2 |
| 20260501182010 | 14 | 296 | 0.0 | 17.7 | 0.00 | 0.00 | 0.00 | 41 | 1010.1 |
| 20260501181525 | 15 | 313 | 8.0 | 17.7 | 0.00 | 0.00 | 0.00 | 42 | 1010.2 |
| 20260501181010 | 14 | 329 | 4.8 | 19.3 | 0.00 | 0.00 | 0.00 | 40 | 1010.1 |
| 20260501180505 | 14 | 285 | 8.0 | 19.3 | 0.00 | 0.00 | 0.00 | 41 | 1010.1 |
| 20260501180010 | 13 | 184 | 3.2 | 16.1 | 0.00 | 0.00 | 0.00 | 45 | 1010.2 |
| 20260501175508 | 13 | 345 | 1.6 | 12.9 | 0.00 | 0.00 | 0.00 | 43 | 1010.2 |
| 20260501175004 | 13 | 323 | 0.0 | 16.1 | 0.00 | 0.00 | 0.00 | 43 | 1010.3 |
| 20260501174529 | 13 | 22 | 0.0 | 20.9 | 0.00 | 0.00 | 0.00 | 43 | 1010.3 |
| 20260501174013 | 13 | 315 | 6.4 | 24.1 | 0.00 | 0.00 | 0.00 | 42 | 1010.4 |
| 20260501173506 | 14 | 323 | 6.4 | 24.1 | 0.00 | 0.00 | 0.00 | 41 | 1010.4 |
| 20260501173016 | 15 | 342 | 6.4 | 19.3 | 0.00 | 0.00 | 0.00 | 42 | 1010.3 |
| 20260501172506 | 14 | 223 | 0.0 | 20.9 | 0.00 | 0.00 | 0.00 | 42 | 1010.3 |
| 20260501172007 | 14 | 191 | 1.6 | 22.5 | 0.00 | 0.00 | 0.00 | 47 | 1010.3 |
| 20260501171523 | 13 | 154 | 3.2 | 22.5 | 0.00 | 0.00 | 0.00 | 47 | 1010.5 |
| 20260501171006 | 13 | 252 | 1.6 | 19.3 | 0.00 | 0.00 | 0.00 | 47 | 1010.4 |
| 20260501170511 | 13 | 331 | 3.2 | 20.9 | 0.00 | 0.00 | 0.00 | 45 | 1010.4 |
| 20260501170007 | 12 | 324 | 1.6 | 20.9 | 0.00 | 0.00 | 0.00 | 47 | 1010.4 |
| 20260501165511 | 13 | 347 | 1.6 | 20.9 | 0.00 | 0.00 | 0.00 | 45 | 1010.5 |
| 20260501165010 | 12 | 331 | 0.0 | 20.9 | 0.00 | 0.00 | 0.00 | 51 | 1010.6 |